sat.trackr.live / text

‹ back to catalog

STARLINK-6145

NORAD 56389 · 2023-061R

PAYLOAD ACTIVE UNKNOWN

§ Identity

Operator
Country
US
Launch date
2023-05-04
Launch site
AFETR
Launch vehicle
Mass (kg)
RCS (m²)

Purposes: comms

External: N2YO · Heavens-Above · Gunter

§ Orbital elements

Epoch: 2026-09-20T10:50:45.341088Z

Period
94.27 min
Inclination
43.0002°
Eccentricity
0.0000722
Mean motion
15.27577805 rev/d
Perigee alt
482.6 km
Apogee alt
483.6 km
Semi-major
6,861.2 km
B*
7.0350e-6
RAAN
178.1818°
Arg perigee
249.8336°
Mean anomaly
110.2438°
Rev number
18,653

§ Raw data

STARLINK-61451 56389U 23061R   26263.45191367 -.00000068  00000+0  70350-5 0  99922 56389  43.0002 178.1818 0000722 249.8336 110.2438 15.27577805186531

JSON: /api/v1/satellites/56389 · /tle

For live sub-satellite position, see the globe view (requires WebGL).

§ Visibility from observer

Set your observer location to see the next 7 days of passes ≥ 10°. The values pass through the URL so the page stays shareable.

No JS? Fill the form by hand. The geolocation button needs JavaScript.